[[{"header":{"parameterUnit":"m.s-1","parameterCategory":1,"la1":30.2991,"la2":30.254,"lo1":-89.0895,"lo2":-89.0444,"dy":0.0017,"dx":0.0017,"nx":28,"ny":28,"refTime":"2023-04-01T21:00:00:Z","depth":0,"parameterNumber":2,"parameterNumberName":"U-component_of_WINDS"},"data":[0,0,0,0,0,0,0,0,0,0,0,0,0,0,0,0,0,0,0,0,0,0,0,0,0,0,0,0,0,0,0,0,0,0,0,0,0,0,0,0,0,0,0,0,0,0,0,0,0,0,0,0,0,0,0,0,0,0,-0.7541,-0.7543,0,-0.7681,-0.7683,-0.7685,-0.7766,-0.7767,-0.7767,-0.7767,-0.791,-0.7913,-0.7917,0,0,0,0,0,0,0,0,0,0,0,0,0,-0.7343,-0.7346,-0.7541,-0.7543,-0.7545,-0.7681,-0.7683,-0.7685,-0.7766,-0.7767,-0.7767,-0.7767,-0.7909,-0.7913,-0.7917,0,0,0,0,0,0,0,0,0,0,0,0,0,-0.7451,-0.7347,-0.7541,-0.7602,-0.7609,-0.7681,-0.7683,-0.7685,-0.7766,-0.7767,-0.7767,-0.7768,-0.7907,-0.7912,-0.7918,-0.794,0,0,-0.7934,-0.7936,0,0,0,0,0,0,0,0,-0.7444,-0.7458,-0.7591,-0.7598,-0.7605,-0.7707,-0.7666,-0.7771,-0.7766,-0.7706,-0.7767,-0.7768,-0.7842,-0.7853,-0.7878,-0.7947,-0.7953,-0.7934,-0.7937,-0.794,-0.7941,0,0,0,0,0,0,0,-0.7437,-0.7452,-0.7597,-0.7593,-0.7602,-0.7622,-0.7638,-0.7686,-0.777,-0.7712,-0.7718,-0.7733,-0.7846,-0.7872,-0.7882,-0.7955,-0.7934,-0.7939,-0.7942,-0.7944,-0.8049,-0.8048,0,0,0,0,0,0,-0.742,-0.7446,-0.7592,-0.7601,-0.7525,-0.7625,-0.7643,-0.7674,-0.7769,-0.7784,-0.7733,-0.7737,-0.7863,-0.7875,-0.7887,-0.7919,-0.7939,-0.7944,-0.7947,-0.8049,-0.8049,-0.8048,0,0,0,0,0,0,-0.7415,-0.7432,-0.7587,-0.7525,-0.7546,-0.7628,-0.7662,-0.7676,-0.7703,-0.7785,-0.7801,-0.7744,-0.7864,-0.788,-0.7926,-0.7925,-0.7947,-0.7952,-0.8049,-0.8049,-0.8048,-0.7983,0,0,0,0,0,0,-0.7409,-0.743,-0.744,-0.7525,-0.7549,-0.7623,-0.7662,-0.7679,-0.7712,-0.7718,-0.78,-0.7814,-0.7866,-0.7918,-0.7931,-0.7933,-0.7956,-0.805,-0.8049,-0.8049,-0.7986,-0.7981,-0.7976,0,0,0,0,0,-0.7402,-0.7416,-0.744,-0.7457,-0.7563,-0.7623,-0.7637,-0.7696,-0.7711,-0.7722,-0.7774,-0.7812,-0.7923,-0.7922,-0.7938,-0.7941,-0.805,-0.8049,-0.8049,-0.7988,-0.7982,-0.7976,0,0,0,0,0,0,-0.7328,-0.7428,-0.7456,-0.7497,-0.7551,-0.7637,-0.7651,-0.7687,-0.7738,-0.7742,-0.7813,-0.783,-0.787,-0.791,-0.7907,-0.7967,-0.7991,-0.7993,-0.7939,-0.7934,-0.7929,-0.7918,-0.796,0,0,0,0,0,-0.7317,-0.7358,-0.7443,-0.7471,-0.7497,-0.7569,-0.7598,-0.7638,-0.7697,-0.772,-0.7777,-0.7832,-0.7879,-0.7909,-0.7957,-0.7992,-0.8011,-0.8002,-0.7997,-0.7993,-0.7994,-0.8015,-0.8012,-0.8046,-0.8046,-0.8046,0,0,-0.7294,-0.7353,-0.7375,-0.7458,-0.7504,-0.7545,-0.7588,-0.7629,-0.766,-0.7726,-0.7774,-0.7817,-0.7883,-0.7924,-0.7944,-0.7958,-0.7989,-0.7992,-0.7987,-0.7991,-0.8014,-0.801,-0.8007,-0.8045,-0.8045,-0.8045,0,0,-0.7272,-0.7322,-0.7351,-0.7396,-0.7466,-0.7514,-0.7521,-0.7601,-0.7632,-0.7681,-0.7732,-0.7769,-0.785,-0.7895,-0.7928,-0.7923,-0.7959,-0.7937,-0.7911,-0.7931,-0.7928,-0.7926,-0.7924,-0.7922,-0.7937,-0.7937,-0.7937,0,-0.7235,-0.7298,-0.7361,-0.7399,-0.7434,-0.7496,-0.7526,-0.7567,-0.7649,-0.7671,-0.7686,-0.7788,-0.7837,-0.7889,-0.7887,-0.7912,-0.7922,-0.7927,-0.7923,-0.7922,-0.7921,-0.7919,-0.7918,-0.7934,-0.7934,-0.7935,-0.7935,0,-0.7248,-0.7291,-0.7306,-0.7383,-0.742,-0.7453,-0.7521,-0.755,-0.7588,-0.7634,-0.7682,-0.7743,-0.7805,-0.782,-0.7857,-0.7877,-0.7884,-0.791,-0.7935,-0.7913,-0.7913,-0.7913,-0.7929,-0.7931,-0.7932,-0.7932,0,0,-0.7185,-0.7296,-0.73,-0.7336,-0.7417,-0.7452,-0.7488,-0.7548,-0.7571,-0.7626,-0.7658,-0.7724,-0.7748,-0.7786,-0.7829,-0.7846,-0.7838,-0.787,-0.7873,-0.7862,-0.7863,-0.7842,-0.7841,-0.7862,-0.7862,-0.7862,-0.7857,0,-0.7175,-0.7243,-0.73,-0.7347,-0.7387,-0.7446,-0.7478,-0.7531,-0.7575,-0.7615,-0.7664,-0.771,-0.7739,-0.7762,-0.7782,-0.7834,-0.7839,-0.7836,-0.7892,-0.7893,-0.7873,-0.7841,-0.782,-0.7812,-0.7858,-0.7858,-0.7858,0,-0.7172,-0.7224,-0.7274,-0.7351,-0.737,-0.7397,-0.7457,-0.7495,-0.7556,-0.7587,-0.7629,-0.7673,-0.7714,-0.7735,-0.7791,-0.7788,-0.7815,-0.7844,-0.7845,-0.7852,-0.7874,-0.7847,-0.7811,-0.7809,-0.7858,-0.7858,-0.7858,0,-0.712,-0.7202,-0.7243,-0.7272,-0.7362,-0.738,-0.7418,-0.748,-0.7513,-0.7565,-0.7586,-0.7642,-0.7673,-0.7715,-0.7773,-0.7783,-0.7823,-0.7849,-0.785,-0.7848,-0.7855,-0.7854,-0.7822,-0.7873,-0.7873,-0.7873,-0.7873,0,-0.7102,-0.7131,-0.722,-0.7245,-0.7279,-0.7344,-0.7376,-0.7419,-0.7474,-0.7508,-0.7563,-0.7594,-0.767,-0.771,-0.7755,-0.7795,-0.7809,-0.7834,-0.7846,-0.7829,-0.7826,-0.7847,-0.7849,-0.7873,-0.7873,-0.7873,-0.7873,0,-0.705,-0.7111,-0.7159,-0.7241,-0.7262,-0.7283,-0.7353,-0.7379,-0.7426,-0.7469,-0.7483,-0.7557,-0.7607,-0.7669,-0.7739,-0.777,-0.7804,-0.7823,-0.7783,-0.779,-0.7787,-0.7786,-0.7768,-0.7768,-0.7818,-0.7817,-0.7817,0,-0.7034,-0.7058,-0.7142,-0.7168,-0.7205,-0.7248,-0.7281,-0.7346,-0.7379,-0.745,-0.7468,-0.7522,-0.7568,-0.7645,-0.7705,-0.7759,-0.7778,-0.7768,-0.7787,-0.7769,-0.7778,-0.7775,-0.7778,-0.7763,-0.7762,-0.7762,-0.7761,0,-0.7,-0.7029,-0.7075,-0.7131,-0.7169,-0.7216,-0.7266,-0.7285,-0.736,-0.7394,-0.7446,-0.7482,-0.7553,-0.7606,-0.7667,-0.7707,-0.7746,-0.7755,-0.7758,-0.774,-0.7716,-0.7729,-0.777,-0.7755,-0.7755,-0.7756,-0.7756,-0.7756,-0.6966,-0.6989,-0.7051,-0.71,-0.7144,-0.719,-0.7218,-0.7269,-0.7313,-0.7376,-0.7412,-0.7462,-0.7523,-0.7609,-0.7647,-0.7687,-0.7702,-0.7706,-0.7707,-0.7707,-0.7701,-0.771,-0.7699,-0.7699,-0.7699,-0.77,-0.77,0,-0.6934,-0.6977,-0.7022,-0.7089,-0.7127,-0.7161,-0.7218,-0.7248,-0.7291,-0.7344,-0.7389,-0.7448,-0.75,-0.7563,-0.7619,-0.7639,-0.7658,-0.7651,-0.765,-0.7659,-0.7685,-0.7677,-0.7635,-0.7635,-0.7635,-0.7635,-0.7635,-0.7635,-0.6922,-0.6963,-0.6999,-0.7062,-0.7105,-0.7155,-0.7184,-0.7226,-0.7269,-0.7332,-0.7375,-0.7416,-0.7474,-0.7534,-0.7582,-0.76,-0.7618,-0.7605,-0.7627,-0.7651,-0.7657,-0.7662,-0.7655,-0.7608,-0.7608,-0.7598,-0.7597,-0.7597]},{"header":{"parameterUnit":"m.s-1","parameterCategory":1,"la1":30.2991,"la2":30.254,"lo1":-89.0895,"lo2":-89.0444,"dy":0.0017,"dx":0.0017,"nx":28,"ny":28,"refTime":"2023-04-01T21:00:00:Z","depth":0,"parameterNumber":3,"parameterNumberName":"V-component_of_WINDS"},"data":[0,0,0,0,0,0,0,0,0,0,0,0,0,0,0,0,0,0,0,0,0,0,0,0,0,0,0,0,0,0,0,0,0,0,0,0,0,0,0,0,0,0,0,0,0,0,0,0,0,0,0,0,0,0,0,0,0,0,4.9427,4.9428,0,4.9527,4.9528,4.953,4.9559,4.9559,4.9558,4.9558,4.9656,4.9659,4.9662,0,0,0,0,0,0,0,0,0,0,0,0,0,4.9258,4.9261,4.9426,4.9428,4.9429,4.9527,4.9529,4.953,4.9559,4.9559,4.9558,4.9557,4.9655,4.9658,4.9662,0,0,0,0,0,0,0,0,0,0,0,0,0,4.9342,4.9262,4.9426,4.9456,4.9459,4.9527,4.9529,4.953,4.9559,4.9559,4.9558,4.9557,4.9654,4.9658,4.9663,4.9707,0,0,4.9677,4.9679,0,0,0,0,0,0,0,0,4.9337,4.9348,4.945,4.9454,4.9458,4.953,4.9505,4.9589,4.956,4.9521,4.9558,4.9557,4.9614,4.9622,4.9643,4.9711,4.9716,4.9677,4.968,4.9682,4.9683,0,0,0,0,0,0,0,4.9331,4.9344,4.9466,4.9451,4.9456,4.9463,4.9474,4.9521,4.9571,4.9524,4.9527,4.9539,4.9616,4.9638,4.9645,4.9717,4.9677,4.9681,4.9684,4.9686,4.9832,4.9833,0,0,0,0,0,0,4.9321,4.9339,4.9463,4.9469,4.9395,4.9467,4.9479,4.9508,4.957,4.9579,4.9539,4.954,4.963,4.964,4.9649,4.9708,4.9682,4.9686,4.9689,4.9831,4.9832,4.9833,0,0,0,0,0,0,4.9317,4.9332,4.9459,4.9405,4.9422,4.9471,4.9502,4.951,4.9532,4.9582,4.959,4.9553,4.963,4.9642,4.9694,4.9711,4.9689,4.9693,4.983,4.9831,4.9833,4.9824,0,0,0,0,0,0,4.9312,4.933,4.9347,4.9405,4.9424,4.9503,4.9503,4.9512,4.954,4.9542,4.9596,4.9604,4.963,4.9687,4.9698,4.9717,4.9696,4.9828,4.983,4.9832,4.9823,4.9825,4.9827,0,0,0,0,0,4.9306,4.9339,4.9348,4.9363,4.9447,4.9503,4.9514,4.9545,4.9541,4.956,4.9592,4.9603,4.9707,4.9692,4.9705,4.9726,4.9827,4.983,4.9832,4.9822,4.9824,4.9827,0,0,0,0,0,0,4.9279,4.9347,4.9358,4.941,4.9451,4.9508,4.9532,4.9546,4.9588,4.9587,4.9622,4.9634,4.9684,4.971,4.9691,4.9774,4.9768,4.9773,4.9755,4.9758,4.976,4.9753,4.97,0,0,0,0,0,4.928,4.9321,4.9377,4.9418,4.9438,4.9482,4.9507,4.9528,4.9571,4.9588,4.9624,4.9664,4.9707,4.9734,4.9775,4.9827,4.984,4.9848,4.985,4.9851,4.9855,4.9888,4.9893,4.9842,4.9841,4.9841,0,0,4.928,4.9322,4.9345,4.9414,4.9448,4.949,4.9496,4.9538,4.957,4.9594,4.9646,4.9674,4.9722,4.9775,4.9799,4.9798,4.9873,4.9854,4.9855,4.9859,4.9891,4.9896,4.99,4.9843,4.9843,4.9843,0,0,4.9303,4.9338,4.9378,4.9414,4.9467,4.9496,4.9506,4.9562,4.9583,4.9636,4.9656,4.9694,4.9765,4.98,4.9826,4.9868,4.988,4.988,4.9891,4.9922,4.9926,4.993,4.9947,4.9953,4.9884,4.9884,4.9884,0,4.9297,4.9362,4.9396,4.944,4.9471,4.9497,4.9539,4.9571,4.9633,4.9654,4.9651,4.9745,4.9778,4.9842,4.9852,4.9872,4.9886,4.9874,4.9923,4.9927,4.9931,4.9948,4.9954,4.9884,4.9884,4.9884,4.9884,0,4.9353,4.9397,4.9423,4.9487,4.952,4.9562,4.9604,4.9633,4.9652,4.9682,4.9738,4.978,4.9832,4.9849,4.9865,4.9915,4.9913,4.9916,4.9911,4.9936,4.9952,4.9959,4.9884,4.9884,4.9884,4.9884,0,0,4.9358,4.9445,4.9454,4.9485,4.9547,4.9583,4.9627,4.9681,4.9707,4.975,4.9789,4.9851,4.9857,4.9887,4.9909,4.9936,4.997,4.9937,4.9939,4.9943,5.0031,5.0029,5.0036,4.9979,4.998,4.9981,5.0028,0,4.939,4.9472,4.9507,4.9573,4.9617,4.9645,4.9684,4.9727,4.9757,4.9798,4.983,4.9875,4.9877,4.9896,4.9925,4.996,4.9988,4.9957,5.0016,5.0018,5.0004,5.0044,5.0041,5.0082,5.0034,5.0035,5.0036,0,4.9438,4.9486,4.9557,4.9619,4.9638,4.9673,4.9728,4.9766,4.9816,4.9836,4.9873,4.9895,4.9943,4.9935,5.0004,4.9982,5.0008,5.0029,5.0032,5.0039,5.0029,5.0054,5.0096,5.0103,5.0046,5.0045,5.0044,0,4.9438,4.952,4.9574,4.96,4.9672,4.9697,4.9728,4.9777,4.9809,4.9856,4.9878,4.9929,4.9957,4.9997,5.0032,5.0022,5.0098,5.0092,5.0117,5.0116,5.0131,5.013,5.018,5.0146,5.0146,5.0146,5.0146,0,4.9471,4.9514,4.9576,4.9609,4.9659,4.9699,4.9747,4.978,4.9825,4.9866,4.9892,4.993,4.9974,5.0017,5.0045,5.0099,5.0111,5.0129,5.0136,5.0128,5.0126,5.0146,5.0144,5.0148,5.0147,5.0147,5.0147,0,4.9478,4.9522,4.9583,4.9649,4.9667,4.9701,4.9757,4.9791,4.9824,4.9875,4.989,4.9941,4.9994,5.0034,5.0101,5.012,5.0178,5.0185,5.0162,5.0166,5.019,5.0187,5.0255,5.0267,5.0224,5.0224,5.0224,0,4.9497,4.9531,4.9602,4.9633,4.9665,4.9713,4.9747,4.9789,4.9823,4.9886,4.9912,4.9968,5.0015,5.0098,5.0141,5.0194,5.0203,5.0223,5.021,5.0202,5.0206,5.0204,5.0209,5.0224,5.0225,5.0225,5.0225,0,4.9525,4.9547,4.9595,4.9653,4.9694,4.974,4.9787,4.981,4.9861,4.9898,4.9954,4.9991,5.0063,5.0118,5.0176,5.0208,5.0226,5.0229,5.0238,5.023,5.0216,5.0227,5.0168,5.0227,5.0227,5.0227,5.0227,5.0227,4.954,4.9574,4.9631,4.9685,4.9726,4.977,4.9807,4.9847,4.9895,4.9959,4.998,5.0039,5.0092,5.0173,5.0206,5.0252,5.0252,5.0264,5.0268,5.027,5.0271,5.0209,5.0263,5.0263,5.0263,5.0263,5.0263,0,4.9572,4.9611,4.9661,4.9729,4.9772,4.9788,4.9842,4.9877,4.9929,4.9978,5.0026,5.0092,5.0147,5.0197,5.0254,5.0282,5.0292,5.0296,5.0295,5.0303,5.0267,5.0254,5.0288,5.0288,5.0288,5.0288,5.0288,5.0288,4.9594,4.9653,4.9681,4.9762,4.98,4.986,4.989,4.9932,4.9972,5.0046,5.0094,5.0126,5.0176,5.0239,5.0291,5.0304,5.0325,5.0327,5.0342,5.0308,5.0305,5.0302,5.029,5.0331,5.0331,5.0375,5.0375,5.0376]}]]